This demonstration page uses our WeatherBlox Daily Observations layout. Learn more.

Left ArrowRight Arrow

Hourly Observations for October 8, 2022

Temp ( °F °C ) Dew Point ( °F °C ) Humidity (%) Winds ( mph kmh ) Pressure ( in mb ) Visibility ( mi km ) Precip ( " mm )
12:53 am 00:53 Clear 65 18.3 41 5 41 41 Calm 30.00 1016 10 16 0.00 0.00
1:53 am 01:53 Clear 64 17.8 40 4.4 41 41 Calm 30.01 1016 10 16 0.00 0.00
2:53 am 02:53 Clear 61 16.1 41 5 48 48 Calm 30.01 1016 10 16 0.00 0.00
3:53 am 03:53 Clear 59 15 42 5.6 53 53 Calm 30.01 1016 10 16 0.00 0.00
4:53 am 04:53 Clear 58 14.4 42 5.6 55 55 NW 3 6 30.02 1017 10 16 0.00 0.00
5:53 am 05:53 Clear 60 15.6 41 5 49 49 Calm 30.02 1017 10 16 0.00 0.00
6:53 am 06:53 Clear 57 13.9 41 5 55 55 NNE 3 6 30.03 1017 10 16 0.00 0.00
7:53 am 07:53 Sunny 59 15 43 6.1 55 55 Calm 30.04 1017 10 16 0.00 0.00
8:53 am 08:53 Sunny 70 21.1 40 4.4 33 33 N 3 6 30.04 1017 10 16 0.00 0.00
9:53 am 09:53 Sunny 79 26.1 38 3.3 23 23 N 6 9 30.04 1017 10 16 0.00 0.00
10:53 am 10:53 Sunny 84 28.9 38 3.3 19 19 NNW 5 7 30.02 1017 10 16 0.00 0.00
11:53 am 11:53 Sunny 89 31.7 38 3.3 17 17 Calm 30.00 1016 10 16 0.00 0.00
12:53 pm 12:53 Sunny 94 34.4 35 1.7 13 13 Calm 29.97 1015 10 16 0.00 0.00
1:53 pm 13:53 Sunny 96 35.6 34 1.1 11 11 Calm 29.95 1014 10 16 0.00 0.00
2:53 pm 14:53 Sunny 98 36.7 34 1.1 11 11 VRB 7 11 29.92 1013 10 16 0.00 0.00
3:53 pm 15:53 Sunny 99 37.2 32 0 10 10 SSW 7 11 29.90 1013 10 16 0.00 0.00
4:53 pm 16:53 Sunny 98 36.7 32 0 10 10 SSW 6 9 29.89 1012 10 16 0.00 0.00
5:53 pm 17:53 Sunny 96 35.6 35 1.7 12 12 SSE 7 11 29.89 1012 10 16 0.00 0.00
6:53 pm 18:53 Clear 88 31.1 40 4.4 19 19 S 6 9 29.90 1013 10 16 0.00 0.00
7:53 pm 19:53 Clear 83 28.3 40 4.4 22 22 Calm 29.91 1013 10 16 0.00 0.00
8:53 pm 20:53 Clear 76 24.4 41 5 29 29 E 3 6 29.93 1013 10 16 0.00 0.00
9:53 pm 21:53 Clear 79 26.1 43 6.1 28 28 Calm 29.93 1014 10 16 0.00 0.00
10:53 pm 22:53 Clear 72 22.2 42 5.6 34 34 VRB 3 6 29.95 1014 10 16 0.00 0.00
11:53 pm 23:53 Clear 67 19.4 43 6.1 42 42 Calm 29.95 1014 10 16 0.00 0.00

Powered by AerisWeather